Content
SEND FEEDBACK

Daily
Averages
Monthly
Summary
United States of America

MADISON, SOUTH DAKOTA


Home > North America > United States > South Dakota
Elevation: 1726 feet     Latitude: 44 02N     Longitude: 097 10W

WEATHER
 
SELECT A DAY
Number of Records: 130,154;   Date Range: 3/17/09 - 8/29/14
 
SHARE

PRINT THIS DATA

[ ← Previous Day ]
WEATHER ALMANAC - FEBRUARY 13, 2013
[ Next Day → ]
[ °C ]   °F
Weather ElementAverageHighLow
Temperature30.1 °F37.4 °F (5:00 pm)23 °F (7:20 am)
Dewpoint30.1 °F37.4 °F (5:00 pm)23 °F (7:20 am)
Humidity99.9 %100 % (12:20 am)93 % (2:40 pm)
Barometer29.69 in29.82 in (12:20 am)29.60 in (3:40 pm)
Wind Speed12.9 mph24.2 mph (11:40 pm)
Wind Gust29.9 mph (11:40 pm)
Weather ElementAverage
Visibility10 mi
Wind DirectionWSW (264.2 °)

Weather ElementTotal
Precipitation---
Heating Degree Days34.8 (Base 65)
Averaged from 69 records on February 13, 2013
WEATHER CONDITIONS BREAKOUT
WIND DIRECTION BREAKOUT
WEATHER BY HOUR - FEBRUARY 13, 2013
[ °C ]   °F
Local TimeTemperatureDewpointHumidityBarometerVisibilityWind DirectionWind SpeedGust SpeedPrecipitationEventsConditions
12:20 AM24.8 °F24.8 °F100 %29.82 in10.0 miWNW (290°)9.2 mphOvercast
1:00 AM24.8 °F24.8 °F100 %29.81 in10.0 miWNW (290°)11.5 mphOvercast
1:20 AM26.6 °F26.6 °F100 %29.80 in10.0 miWest (280°)10.4 mphOvercast
1:40 AM28.4 °F28.4 °F100 %29.80 in10.0 miWest (280°)10.4 mphOvercast
2:00 AM26.6 °F26.6 °F100 %29.80 in10.0 miWNW (290°)8.1 mphOvercast
2:20 AM26.6 °F26.6 °F100 %29.80 in10.0 miWNW (290°)8.1 mphOvercast
2:40 AM24.8 °F24.8 °F100 %29.80 in10.0 miWest (280°)8.1 mphMostly Cloudy
3:00 AM26.6 °F26.6 °F100 %29.79 in10.0 miWest (270°)8.1 mphMostly Cloudy
3:20 AM26.6 °F26.6 °F100 %29.79 in10.0 miWest (270°)10.4 mphOvercast
3:40 AM26.6 °F26.6 °F100 %29.78 in10.0 miWest (270°)8.1 mphOvercast
4:00 AM26.6 °F26.6 °F100 %29.78 in10.0 miWest (270°)10.4 mphOvercast
4:20 AM26.6 °F26.6 °F100 %29.77 in10.0 miWest (260°)9.2 mphMostly Cloudy
4:40 AM26.6 °F26.6 °F100 %29.76 in10.0 miWest (260°)8.1 mphPartly Cloudy
5:00 AM26.6 °F26.6 °F100 %29.76 in10.0 miWSW (250°)9.2 mphMostly Cloudy
5:20 AM26.6 °F26.6 °F100 %29.76 in10.0 miWest (260°)10.4 mphScattered Clouds
5:40 AM26.6 °F26.6 °F100 %29.76 in10.0 miWest (280°)5.8 mphMostly Cloudy
6:00 AM26.6 °F26.6 °F100 %29.75 in10.0 miWest (270°)6.9 mphPartly Cloudy
6:20 AM26.6 °F26.6 °F100 %29.74 in10.0 miWest (270°)5.8 mphClear
6:40 AM24.8 °F24.8 °F100 %29.74 in10.0 miWSW (250°)12.7 mphClear
7:00 AM24.8 °F24.8 °F100 %29.73 in10.0 miWSW (250°)10.4 mphClear
7:20 AM23.0 °F23.0 °F100 %29.73 in10.0 miWSW (240°)8.1 mphClear
7:40 AM23.0 °F23.0 °F100 %29.72 in10.0 miWSW (240°)10.4 mphClear
8:00 AM23.0 °F23.0 °F100 %29.72 in10.0 miWSW (240°)11.5 mphClear
8:20 AM24.8 °F24.8 °F100 %29.72 in10.0 miWSW (240°)11.5 mphClear
8:40 AM24.8 °F24.8 °F100 %29.71 in10.0 miWSW (250°)8.1 mphClear
9:00 AM26.6 °F26.6 °F100 %29.70 in10.0 miWSW (250°)12.7 mphClear
9:20 AM26.6 °F26.6 °F100 %29.69 in10.0 miWSW (250°)15.0 mphClear
9:40 AM26.6 °F26.6 °F100 %29.70 in10.0 miWest (260°)11.5 mphClear
10:00 AM28.4 °F28.4 °F100 %29.70 in10.0 miWest (270°)12.7 mphClear
10:20 AM28.4 °F28.4 °F100 %29.69 in10.0 miWest (260°)11.5 mphClear
10:40 AM30.2 °F30.2 °F100 %29.69 in10.0 miWest (260°)9.2 mphClear
11:00 AM30.2 °F30.2 °F100 %29.69 in10.0 miWest (260°)10.4 mphClear
11:20 AM32.0 °F32.0 °F100 %29.69 in10.0 miWest (260°)9.2 mphClear
11:40 AM32.0 °F32.0 °F100 %29.68 in10.0 miWest (260°)10.4 mphClear
12:00 PM32.0 °F32.0 °F100 %29.67 in10.0 miWSW (250°)9.2 mphClear
12:20 PM32.0 °F32.0 °F100 %29.66 in10.0 miWSW (240°)9.2 mphClear
12:40 PM32.0 °F32.0 °F100 %29.64 in10.0 miSW (230°)10.4 mphScattered Clouds
1:00 PM32.0 °F32.0 °F100 %29.63 in10.0 miSW (230°)10.4 mphScattered Clouds
1:20 PM32.0 °F32.0 °F100 %29.62 in10.0 miWSW (240°)12.7 mphScattered Clouds
1:40 PM32.0 °F32.0 °F100 %29.61 in10.0 miWSW (240°)13.8 mphScattered Clouds
2:00 PM32.0 °F32.0 °F100 %29.61 in10.0 miWSW (240°)15.0 mphOvercast
2:20 PM33.8 °F33.8 °F100 %29.61 in10.0 miWSW (240°)16.1 mphMostly Cloudy
2:40 PM35.6 °F33.8 °F93 %29.61 in10.0 miWSW (250°)13.8 mph18.4 mphOvercast
3:00 PM33.8 °F33.8 °F100 %29.61 in10.0 miWSW (240°)12.7 mph18.4 mphOvercast
3:20 PM35.6 °F35.6 °F100 %29.61 in10.0 miNorthOvercast
3:40 PM35.6 °F35.6 °F100 %29.60 in10.0 miNorthOvercast
4:00 PM35.6 °F35.6 °F100 %29.60 in10.0 miWSW (240°)13.8 mphOvercast
4:20 PM35.6 °F35.6 °F100 %29.60 in10.0 miWSW (250°)11.5 mph18.4 mphOvercast
4:40 PM35.6 °F35.6 °F100 %29.60 in10.0 miWest (260°)11.5 mphOvercast
5:00 PM37.4 °F37.4 °F100 %29.60 in10.0 miWest (270°)15.0 mph19.6 mphScattered Clouds
5:20 PM37.4 °F37.4 °F100 %29.60 in10.0 miWNW (290°)19.6 mph24.2 mphClear
5:40 PM35.6 °F35.6 °F100 %29.60 in10.0 miWNW (290°)16.1 mphClear
6:00 PM35.6 °F35.6 °F100 %29.61 in10.0 miWNW (300°)15.0 mphClear
6:20 PM35.6 °F35.6 °F100 %29.62 in10.0 miWNW (290°)13.8 mph19.6 mphPartly Cloudy
6:40 PM33.8 °F33.8 °F100 %29.63 in10.0 miWNW (290°)19.6 mph23.0 mphClear
7:00 PM33.8 °F33.8 °F100 %29.63 in10.0 miWNW (300°)16.1 mph26.5 mphClear
7:20 PM33.8 °F33.8 °F100 %29.64 in10.0 miWNW (300°)16.1 mph21.9 mphMostly Cloudy
7:40 PM32.0 °F32.0 °F100 %29.65 in10.0 miNW (310°)18.4 mph23.0 mphOvercast
8:00 PM32.0 °F32.0 °F100 %29.65 in10.0 miNW (310°)17.3 mph25.3 mphScattered Clouds
8:20 PM32.0 °F32.0 °F100 %29.65 in10.0 miNW (310°)16.1 mphClear
8:40 PM32.0 °F32.0 °F100 %29.66 in10.0 miNW (310°)18.4 mphMostly Cloudy
9:00 PM32.0 °F32.0 °F100 %29.66 in10.0 miNW (310°)19.6 mph26.5 mphMostly Cloudy
9:20 PM32.0 °F32.0 °F100 %29.66 in10.0 miNW (310°)20.7 mph25.3 mphOvercast
9:40 PM32.0 °F32.0 °F100 %29.67 in10.0 miNW (310°)19.6 mph27.6 mphOvercast
10:00 PM32.0 °F32.0 °F100 %29.68 in10.0 miNW (310°)20.7 mph26.5 mphOvercast
10:20 PM32.0 °F32.0 °F100 %29.69 in10.0 miNW (320°)23.0 mph26.5 mphOvercast
11:00 PM32.0 °F32.0 °F100 %29.71 in10.0 miNNW (330°)21.9 mph26.5 mphOvercast
11:20 PM32.0 °F32.0 °F100 %29.71 in10.0 miNW (320°)17.3 mph28.8 mphOvercast
11:40 PM32.0 °F32.0 °F100 %29.73 in10.0 miNNW (330°)24.2 mph29.9 mphOvercast
Hourly data recorded from KMDS, located miles away from Madison, South Dakota







STORIES FROM OUR PARTNERS